Tracking 31027 objects as of 19-Jul-2025
HD Live streaming from Space Station
objects crossing your sky now

COSMOS 886 DEB

Track COSMOS 886 DEB now!
10-day predictions


NORAD ID: 19112
Int'l Code: 1976-126BZ
Perigee: 488.2 km
Apogee: 1,879.7 km
Inclination: 65.8 °
Period: 108.9 minutes
Semi major axis: 7554 km
RCS: 0.0045 m2 (small)
Launch date: December 27, 1976
Source: Commonwealth of Independent States (former USSR) (CIS)
Launch site: TYURATAM MISSILE AND SPACE COMPLEX (TTMTR)

Note: This is SATELLITE DEBRIS
Your satellite tracking list
Your tracking list is empty




NASA's NSSDC Master Catalog

Two Line Element Set (TLE):
1 19112U 76126BZ  25199.32477247  .00000618  00000-0  15787-3 0  9994
2 19112  65.8248  66.4181 0920910 242.0200 108.4720 13.22078928515898
Source of the keplerian elements: AFSPC